#timestamp,LO_Frequency,Hit,StdDev 
1501117215.1,286046998.6,N,0.8
1501117235.9,286046998.3,N,0.8
1501117255.7,286047000.8,N,1.1
1501117275.5,286047000.0,N,1.0
1501117295.4,286047000.3,N,1.0
1501117315.2,286047000.4,N,1.0
1501117335.1,286046999.8,N,0.9
1501117336.0,286046999.8,N,0.9
1501117355.8,286047000.0,N,0.8
1501117375.6,286046998.1,N,0.9
1501117395.5,286047000.4,N,0.9
1501117415.3,286046998.1,N,1.0
1501117435.2,286047000.6,N,1.0
1501117455.9,286046998.1,N,1.0
1501117475.7,286047001.1,N,1.0
1501117495.6,286046998.7,N,1.0
1501117515.4,286046999.4,N,1.0
1501117535.2,286046999.1,N,1.0
1501117555.1,286046998.6,N,1.0
1501117556.0,286046998.6,N,1.0
1501117575.8,286046999.0,N,1.0
1501117595.7,286046999.5,N,0.9
1501117615.5,286046999.1,N,0.9
1501117635.9,286046996.9,P,0.0
1501117655.7,286046998.8,P,0.9
1501117675.5,286046998.7,N,0.9
1501117695.4,286046998.3,N,0.8
1501117715.2,286046998.9,N,0.9
1501117735.1,286046998.4,N,0.8
1501117736.0,286046998.4,N,0.8
1501117755.8,286046998.7,N,0.7
1501117775.6,286046999.0,N,0.7
1501117795.5,286046998.6,N,0.7
1501117815.3,286046998.6,N,0.7
1501117835.1,286046998.8,N,0.7
1501117855.9,286046999.3,N,0.7
1501117875.7,286046999.3,N,0.7
1501117895.6,286046999.3,N,0.7
1501117915.4,286046998.5,N,0.7
1501117935.8,286046996.9,P,0.0
1501117955.6,286046999.0,P,1.0
1501117975.4,286046999.2,N,1.1
1501117995.3,286046998.8,N,1.0
1501118015.1,286046996.9,P,1.1
1501118035.9,286046999.5,N,1.1
1501118055.7,286046997.1,N,1.1
1501118075.5,286046997.6,N,1.1
1501118095.4,286046996.5,P,1.1
1501118115.7,286046996.7,P,0.0
1501118135.6,286046998.5,P,0.8
1501118155.4,286047001.1,N,1.8
1501118175.2,286046999.3,N,1.7
1501118195.1,286046999.4,N,1.6
1501118196.0,286046999.4,N,1.5
1501118215.8,286047001.1,N,1.6
1501118235.7,286046998.3,N,1.5
1501118255.5,286046996.5,N,1.6
1501118275.8,286047000.8,P,0.0
1501118295.7,286047000.2,P,0.3
1501118315.5,286046999.8,N,0.4
1501118335.4,286047000.2,N,0.4
1501118355.2,286047000.0,N,0.4
1501118375.0,286046999.4,N,0.5
1501118375.9,286046999.4,N,0.5
1501118395.8,286046998.9,N,0.6
1501118415.6,286046999.0,N,0.6
1501118435.5,286046999.8,N,0.6
1501118455.3,286047000.4,N,0.6
1501118475.1,286046998.5,N,0.7
1501118495.9,286046999.1,N,0.7
1501118515.7,286046998.4,N,0.7
1501118535.5,286046998.6,N,0.8
1501118555.4,286046999.0,N,0.8
1501118575.2,286046999.3,N,0.7
1501118595.1,286046999.0,N,0.7
1501118596.0,286046999.0,N,0.7
1501118615.8,286046999.5,N,0.7
1501118635.6,286046999.5,N,0.7
1501118655.5,286046999.6,N,0.7
1501118675.3,286046998.9,N,0.7
1501118695.2,286046999.4,N,0.6
1501118715.9,286046998.9,N,0.6
1501118735.0,286046998.6,N,0.7
1501118735.9,286046998.6,N,0.7
1501118755.8,286046998.6,N,0.7
1501118775.6,286046998.7,N,0.7
1501118795.5,286046999.1,N,0.6
1501118815.8,286046997.0,P,0.0
1501118835.6,286046999.5,P,1.2
1501118855.5,286046999.6,N,1.3
1501118875.3,286046999.1,N,1.2
1501118895.2,286046996.6,N,1.3
1501118915.0,286046994.9,P,1.6
1501118915.9,286046994.9,P,1.8
1501118935.7,286046996.2,N,1.7
1501118955.6,286046997.6,N,1.6
1501118975.4,286046997.8,N,1.6
1501118995.3,286046997.1,N,1.5
1501119015.1,286046998.0,N,1.5
1501119016.0,286046998.0,N,1.4
1501119035.8,286046997.9,N,1.4
1501119055.7,286046996.5,N,1.3
1501119075.5,286046999.3,N,1.4
1501119095.4,286046996.5,N,1.4
1501119115.2,286046999.4,N,1.4
1501119135.0,286046999.4,N,1.4
1501119135.9,286046999.4,N,1.4
1501119155.8,286046996.6,N,1.4
1501119175.6,286046999.6,N,1.5
1501119195.4,286046997.8,N,1.4
1501119215.3,286046996.6,N,1.4
1501119235.1,286046999.1,N,1.4
1501119255.9,286046998.4,N,1.4
1501119275.7,286046999.0,N,1.4
1501119315.9,286046999.9,P,0.4
1501119335.7,286047000.0,N,0.4
1501119355.6,286047002.7,P,1.4
1501119375.4,286047000.0,N,1.2
1501119395.2,286047002.2,N,1.3
1501119415.1,286047001.7,N,1.3
1501119416.0,286047001.7,N,1.2
1501119435.8,286047001.4,N,1.2
1501119455.7,286047004.0,P,1.4
1501119475.5,286047003.8,N,1.5
1501119495.3,286047002.2,N,1.5
1501119515.2,286047002.3,N,1.5
1501119535.0,286047004.3,N,1.6
1501119535.9,286047004.3,N,1.6
1501119555.8,286047002.3,N,1.6
1501119575.6,286046999.9,N,1.6
1501119595.4,286047001.9,N,1.6
1501119615.3,286047001.7,N,1.5
1501119635.1,286047004.0,N,1.6
1501119655.9,286047003.8,N,1.6
1501119675.7,286047004.3,N,1.6
1501119695.5,286047002.3,N,1.6
1501119715.4,286047002.1,N,1.5
1501119735.2,286047001.6,N,1.5
1501119755.1,286047004.3,N,1.5
1501119756.0,286047004.3,N,1.6
1501119775.8,286047004.1,N,1.6
1501119795.6,286047004.0,N,1.6
1501119815.5,286047003.0,N,1.5
1501119835.8,286047005.9,P,0.0
1501119855.6,286047000.1,P,2.7
1501119875.5,286047000.4,N,2.8
1501119895.3,286047000.9,N,2.7
1501119915.1,286047000.3,N,2.6
1501119935.9,286046999.8,N,2.5
1501119955.7,286047002.5,N,2.4
1501119975.6,286047002.4,N,2.3
1501119995.4,286047000.7,N,2.2
1501120015.2,286047000.3,N,2.1
1501120035.1,286047000.0,N,2.1
1501120036.0,286047000.0,N,2.1
1501120055.8,286047002.0,N,2.0
1501120075.6,286047000.6,N,1.9
1501120095.5,286047000.6,N,1.9
1501120115.3,286047001.2,N,1.8
1501120135.2,286047000.1,N,1.8
1501120155.0,286047001.3,N,1.8
1501120155.9,286047001.3,N,1.7
1501120175.7,286047003.8,N,1.7
1501120195.6,286047004.4,N,1.8
1501120215.4,286047004.0,N,1.8
1501120235.3,286047004.2,N,1.9
1501120255.1,286047004.1,N,1.9
1501120275.8,286047001.3,N,1.9
1501120295.7,286047003.9,N,1.9
1501120315.5,286047001.8,N,1.8
1501120335.4,286047002.2,N,1.8
1501120355.2,286047001.7,N,1.8
1501120375.0,286047001.3,N,1.6
1501120375.9,286047001.3,N,1.4
1501120415.2,286047002.5,P,1.0
1501120435.1,286047002.7,N,0.9
1501120436.0,286047002.7,P,0.8
1501120455.8,286047002.3,N,0.8
1501120475.6,286047002.5,P,0.7
1501120495.5,286047000.1,N,1.2
1501120515.3,286046999.7,N,1.4
1501120535.2,286047000.4,N,1.4
1501120555.9,286047000.5,N,1.4
1501120575.7,286047002.7,N,1.4
1501120595.6,286047002.8,N,1.4
1501120615.4,286047002.6,N,1.3
1501120635.3,286047000.3,N,1.3
1501120655.1,286047000.4,N,1.3
1501120656.0,286047000.4,N,1.3
1501120675.8,286047000.4,N,1.3
1501120695.4,286047000.5,N,1.3
1501120715.2,286047000.6,N,1.3
1501120735.1,286046999.7,N,1.3
1501120736.0,286046999.7,N,1.4
1501120755.8,286047002.3,N,1.3
1501120775.7,286047002.8,N,1.3
1501120795.5,286047002.7,N,1.3
